Orbital Elements at Epoch 2459200.5 (2020-Dec-17.0) TDB
Reference: JPL 15 (heliocentric ecliptic J2000)
Element | Value | Uncertainty (1-sigma) | Units |
e | .1932847431844207 | 5.9875e-08 | |
a | 2.479979263158182 | 1.4605e-08 | au |
q | 2.000637108175964 | 1.5218e-07 | au |
i | 4.04445762771937 | 5.4123e-06 | deg |
node | 20.19931437986217 | 7.8777e-05 | deg |
peri | 97.50744674553887 | 8.0228e-05 | deg |
M | 258.2041669191543 | 2.0387e-05 | deg |
tp | 2459603.864804364699 (2022-Jan-24.36480436) | 8.3201e-05 | TDB |
period | 1426.495812023715 3.91 | 1.2601e-05 3.45e-08 | d yr |
n | .2523666715076308 | 2.2294e-09 | deg/d |
Q | 2.9593214181404 | 1.7428e-08 | au |
|
| | Orbit Determination Parameters
Additional Information
|